| time (UTC) | temp F | wind direction | speed MPH | gust MPH | rain 1hr in | rain 24hr in | rain mn in | humidity % | barometer mb |
| 20260510020318 | 51 | 209 | 4.0 | 6.0 | 0.00 | 0.21 | 0.21 | 90 | 1006.7 |
| 20260510015846 | 51 | 211 | 3.0 | 6.0 | 0.00 | 0.21 | 0.21 | 90 | 1006.7 |
| 20260510015314 | 51 | 208 | 3.0 | 4.0 | 0.00 | 0.21 | 0.21 | 89 | 1006.7 |
| 20260510014819 | 51 | 224 | 2.0 | 4.0 | 0.00 | 0.21 | 0.21 | 89 | 1006.6 |
| 20260510014326 | 52 | 205 | 2.0 | 4.0 | 0.00 | 0.21 | 0.21 | 89 | 1006.5 |
| 20260510013815 | 52 | 200 | 3.0 | 5.0 | 0.00 | 0.21 | 0.21 | 88 | 1006.4 |
| 20260510013323 | 52 | 181 | 3.0 | 6.0 | 0.00 | 0.21 | 0.21 | 88 | 1006.5 |
| 20260510012832 | 52 | 196 | 4.0 | 6.0 | 0.00 | 0.21 | 0.21 | 88 | 1006.4 |
| 20260510012320 | 53 | 213 | 2.0 | 3.0 | 0.00 | 0.21 | 0.21 | 87 | 1006.5 |
| 20260510011828 | 53 | 262 | 2.0 | 5.0 | 0.00 | 0.21 | 0.21 | 86 | 1006.4 |
| 20260510011316 | 53 | 240 | 4.0 | 8.0 | 0.00 | 0.21 | 0.21 | 86 | 1006.3 |
| 20260510010820 | 53 | 218 | 4.0 | 12.0 | 0.00 | 0.21 | 0.21 | 86 | 1006.3 |
| 20260510010326 | 54 | 188 | 7.0 | 12.0 | 0.00 | 0.21 | 0.21 | 86 | 1006.4 |
| 20260510005815 | 54 | 190 | 5.0 | 11.0 | 0.00 | 0.21 | 0.21 | 86 | 1006.2 |
| 20260510005324 | 54 | 190 | 6.0 | 11.0 | 0.00 | 0.21 | 0.21 | 86 | 1006.1 |
| 20260510004813 | 54 | 171 | 4.0 | 10.0 | 0.00 | 0.21 | 0.21 | 87 | 1006.1 |
| 20260510004323 | 54 | 179 | 5.0 | 10.0 | 0.00 | 0.21 | 0.21 | 87 | 1006.1 |
| 20260510003824 | 54 | 178 | 4.0 | 9.0 | 0.00 | 0.21 | 0.21 | 87 | 1006.2 |
| 20260510003327 | 54 | 193 | 5.0 | 7.0 | 0.00 | 0.21 | 0.21 | 87 | 1006.2 |
| 20260510002817 | 54 | 199 | 2.0 | 5.0 | 0.00 | 0.21 | 0.21 | 87 | 1006.2 |
| 20260510002346 | 54 | 184 | 2.0 | 6.0 | 0.00 | 0.21 | 0.21 | 87 | 1006.1 |
| 20260510001815 | 54 | 209 | 5.0 | 6.0 | 0.00 | 0.21 | 0.21 | 87 | 1006.2 |
| 20260510001323 | 54 | 193 | 4.0 | 6.0 | 0.00 | 0.21 | 0.21 | 87 | 1006.2 |
| 20260510000828 | 54 | 208 | 4.0 | 6.0 | 0.00 | 0.21 | 0.21 | 87 | 1006.1 |
| 20260510000318 | 54 | 200 | 4.0 | 6.0 | 0.00 | 0.21 | 0.21 | 87 | 1006.0 |
| 20260509235824 | 54 | 188 | 2.0 | 4.0 | 0.00 | 0.21 | 0.21 | 87 | 1006.1 |
| 20260509235329 | 54 | 175 | 2.0 | 7.0 | 0.00 | 0.21 | 0.21 | 87 | 1006.0 |
| 20260509234830 | 54 | 155 | 5.0 | 7.0 | 0.00 | 0.21 | 0.21 | 86 | 1006.1 |
| 20260509234320 | 54 | 154 | 1.0 | 6.0 | 0.00 | 0.21 | 0.21 | 87 | 1005.9 |
| 20260509233828 | 54 | 187 | 3.0 | 7.0 | 0.00 | 0.21 | 0.21 | 87 | 1005.9 |
| 20260509233317 | 54 | 192 | 4.0 | 7.0 | 0.00 | 0.21 | 0.21 | 87 | 1005.8 |
| 20260509232826 | 54 | 208 | 4.0 | 7.0 | 0.00 | 0.21 | 0.21 | 87 | 1006.1 |
| 20260509232327 | 54 | 208 | 5.0 | 7.0 | 0.00 | 0.21 | 0.21 | 87 | 1005.9 |
| 20260509231817 | 54 | 205 | 2.0 | 6.0 | 0.00 | 0.21 | 0.21 | 87 | 1005.8 |
| 20260509231321 | 54 | 215 | 3.0 | 8.0 | 0.00 | 0.21 | 0.21 | 87 | 1005.7 |
| 20260509230832 | 54 | 205 | 3.0 | 9.0 | 0.00 | 0.21 | 0.21 | 87 | 1005.7 |
| 20260509230320 | 54 | 198 | 3.0 | 10.0 | 0.00 | 0.21 | 0.21 | 87 | 1005.4 |
| 20260509225827 | 54 | 202 | 6.0 | 10.0 | 0.00 | 0.21 | 0.21 | 87 | 1005.4 |
| 20260509225336 | 54 | 192 | 5.0 | 10.0 | 0.00 | 0.21 | 0.21 | 87 | 1005.4 |
| 20260509224841 | 54 | 193 | 8.0 | 11.0 | 0.00 | 0.21 | 0.21 | 87 | 1005.4 |
| 20260509224327 | 54 | 205 | 7.0 | 11.0 | 0.00 | 0.21 | 0.21 | 87 | 1005.6 |
| 20260509223818 | 54 | 191 | 5.0 | 7.0 | 0.00 | 0.21 | 0.21 | 87 | 1005.6 |
| 20260509223326 | 54 | 197 | 5.0 | 11.0 | 0.00 | 0.21 | 0.21 | 87 | 1005.6 |
| 20260509222816 | 54 | 209 | 5.0 | 11.0 | 0.00 | 0.21 | 0.21 | 87 | 1005.6 |
| 20260509222342 | 54 | 200 | 4.0 | 9.0 | 0.00 | 0.21 | 0.21 | 87 | 1005.5 |
| 20260509221831 | 54 | 200 | 5.0 | 8.0 | 0.00 | 0.21 | 0.21 | 87 | 1005.5 |
| 20260509221332 | 54 | 195 | 4.0 | 10.0 | 0.00 | 0.21 | 0.21 | 87 | 1005.6 |
| 20260509220834 | 54 | 217 | 5.0 | 12.0 | 0.00 | 0.21 | 0.21 | 87 | 1005.6 |
| 20260509220322 | 54 | 201 | 6.0 | 12.0 | 0.00 | 0.21 | 0.21 | 88 | 1005.5 |
| 20260509215833 | 54 | 198 | 7.0 | 11.0 | 0.00 | 0.21 | 0.21 | 88 | 1005.5 |
| 20260509215320 | 54 | 225 | 7.0 | 10.0 | 0.00 | 0.21 | 0.21 | 88 | 1005.6 |
| 20260509214829 | 54 | 209 | 3.0 | 15.0 | 0.00 | 0.21 | 0.21 | 88 | 1005.7 |
| 20260509214338 | 54 | 212 | 10.0 | 15.0 | 0.00 | 0.21 | 0.21 | 87 | 1005.8 |
| 20260509213847 | 54 | 190 | 7.0 | 13.0 | 0.00 | 0.21 | 0.21 | 87 | 1005.9 |
| 20260509213329 | 54 | 219 | 8.0 | 13.0 | 0.00 | 0.21 | 0.21 | 88 | 1006.0 |
| 20260509212818 | 54 | 202 | 5.0 | 11.0 | 0.00 | 0.21 | 0.21 | 88 | 1005.9 |
| 20260509212326 | 54 | 212 | 6.0 | 11.0 | 0.00 | 0.21 | 0.21 | 89 | 1005.9 |
| 20260509211815 | 54 | 198 | 5.0 | 9.0 | 0.00 | 0.21 | 0.21 | 90 | 1005.9 |
| 20260509211323 | 53 | 198 | 5.0 | 10.0 | 0.00 | 0.21 | 0.21 | 91 | 1006.0 |
| 20260509210831 | 53 | 219 | 5.0 | 10.0 | 0.00 | 0.21 | 0.21 | 91 | 1006.2 |
| 20260509210319 | 53 | 232 | 5.0 | 8.0 | 0.00 | 0.21 | 0.21 | 91 | 1006.1 |
| 20260509205826 | 53 | 190 | 3.0 | 9.0 | 0.00 | 0.21 | 0.21 | 91 | 1006.2 |
| 20260509205332 | 53 | 182 | 5.0 | 11.0 | 0.00 | 0.21 | 0.21 | 90 | 1006.2 |
| 20260509204821 | 53 | 217 | 6.0 | 11.0 | 0.00 | 0.21 | 0.21 | 90 | 1006.2 |
| 20260509204330 | 53 | 200 | 6.0 | 11.0 | 0.00 | 0.21 | 0.21 | 90 | 1006.3 |
| 20260509203818 | 53 | 174 | 3.0 | 9.0 | 0.00 | 0.21 | 0.21 | 89 | 1006.2 |
| 20260509203325 | 53 | 177 | 3.0 | 9.0 | 0.00 | 0.21 | 0.21 | 89 | 1006.2 |
| 20260509202814 | 52 | 201 | 5.0 | 9.0 | 0.00 | 0.21 | 0.21 | 89 | 1006.3 |
| 20260509202343 | 53 | 212 | 5.0 | 12.0 | 0.00 | 0.21 | 0.21 | 89 | 1006.3 |
| 20260509201827 | 52 | 205 | 7.0 | 12.0 | 0.00 | 0.21 | 0.21 | 90 | 1006.4 |
| 20260509201314 | 52 | 208 | 7.0 | 9.0 | 0.00 | 0.21 | 0.21 | 90 | 1006.3 |
| 20260509200823 | 52 | 165 | 3.0 | 11.0 | 0.00 | 0.21 | 0.21 | 90 | 1006.4 |
| 20260509200332 | 52 | 209 | 6.0 | 11.0 | 0.00 | 0.21 | 0.21 | 90 | 1006.4 |
| 20260509195823 | 52 | 198 | 7.0 | 10.0 | 0.00 | 0.21 | 0.21 | 90 | 1006.5 |
| 20260509195330 | 52 | 213 | 7.0 | 10.0 | 0.00 | 0.21 | 0.21 | 91 | 1006.5 |
| 20260509194819 | 52 | 181 | 6.0 | 8.0 | 0.00 | 0.21 | 0.21 | 91 | 1006.5 |
| 20260509194328 | 52 | 172 | 5.0 | 10.0 | 0.00 | 0.21 | 0.21 | 91 | 1006.6 |
| 20260509193815 | 52 | 200 | 6.0 | 10.0 | 0.00 | 0.21 | 0.21 | 91 | 1006.7 |
| 20260509193318 | 52 | 220 | 5.0 | 9.0 | 0.00 | 0.21 | 0.21 | 91 | 1006.8 |
| 20260509192828 | 52 | 184 | 5.0 | 10.0 | 0.00 | 0.21 | 0.21 | 91 | 1006.7 |
| 20260509192316 | 52 | 185 | 5.0 | 10.0 | 0.00 | 0.21 | 0.21 | 91 | 1006.8 |
| 20260509191824 | 52 | 205 | 7.0 | 10.0 | 0.00 | 0.21 | 0.21 | 91 | 1006.8 |
| 20260509191313 | 52 | 215 | 5.0 | 8.0 | 0.00 | 0.21 | 0.21 | 90 | 1006.9 |
| 20260509190835 | 52 | 188 | 6.0 | 10.0 | 0.00 | 0.21 | 0.21 | 90 | 1006.9 |
| 20260509190324 | 52 | 193 | 6.0 | 10.0 | 0.00 | 0.21 | 0.21 | 90 | 1006.9 |
| 20260509185829 | 52 | 202 | 4.0 | 10.0 | 0.00 | 0.21 | 0.21 | 89 | 1007.0 |
| 20260509185319 | 52 | 202 | 6.0 | 10.0 | 0.00 | 0.21 | 0.21 | 89 | 1007.0 |
| 20260509184849 | 52 | 207 | 5.0 | 12.0 | 0.00 | 0.21 | 0.21 | 89 | 1007.1 |
| 20260509184336 | 52 | 192 | 5.0 | 14.0 | 0.00 | 0.21 | 0.21 | 89 | 1007.0 |
| 20260509183819 | 52 | 182 | 7.0 | 14.0 | 0.00 | 0.21 | 0.21 | 89 | 1007.0 |
| 20260509183327 | 52 | 194 | 9.0 | 14.0 | 0.00 | 0.21 | 0.21 | 89 | 1007.0 |
| 20260509182817 | 52 | 158 | 8.0 | 14.0 | 0.00 | 0.21 | 0.21 | 89 | 1007.0 |
| 20260509182322 | 53 | 196 | 6.0 | 14.0 | 0.00 | 0.21 | 0.21 | 89 | 1007.0 |
| 20260509181828 | 53 | 196 | 7.0 | 14.0 | 0.00 | 0.21 | 0.21 | 90 | 1007.0 |
| 20260509181315 | 53 | 212 | 3.0 | 13.0 | 0.00 | 0.21 | 0.21 | 90 | 1007.0 |
| 20260509180843 | 53 | 197 | 5.0 | 13.0 | 0.00 | 0.21 | 0.21 | 90 | 1006.9 |
| 20260509180329 | 53 | 190 | 5.0 | 12.0 | 0.01 | 0.21 | 0.21 | 91 | 1006.9 |
| 20260509175817 | 53 | 196 | 5.0 | 14.0 | 0.01 | 0.21 | 0.21 | 91 | 1007.0 |
| 20260509175348 | 52 | 193 | 9.0 | 14.0 | 0.01 | 0.21 | 0.21 | 91 | 1006.9 |
| 20260509174814 | 52 | 206 | 9.0 | 12.0 | 0.01 | 0.21 | 0.21 | 92 | 1006.9 |
| 20260509174322 | 52 | 201 | 6.0 | 12.0 | 0.01 | 0.21 | 0.21 | 91 | 1006.9 |
| 20260509173832 | 52 | 212 | 4.0 | 11.0 | 0.01 | 0.21 | 0.21 | 92 | 1006.8 |
| 20260509173341 | 52 | 191 | 7.0 | 11.0 | 0.01 | 0.21 | 0.21 | 92 | 1006.8 |
| 20260509172827 | 52 | 173 | 4.0 | 10.0 | 0.01 | 0.21 | 0.21 | 92 | 1006.9 |
| 20260509172317 | 52 | 148 | 4.0 | 10.0 | 0.01 | 0.21 | 0.21 | 92 | 1006.9 |
| 20260509171826 | 52 | 194 | 7.0 | 12.0 | 0.01 | 0.21 | 0.21 | 92 | 1007.0 |
| 20260509171315 | 52 | 192 | 8.0 | 12.0 | 0.01 | 0.21 | 0.21 | 92 | 1007.0 |
| 20260509170820 | 52 | 164 | 5.0 | 13.0 | 0.02 | 0.21 | 0.21 | 92 | 1007.1 |
| 20260509170329 | 52 | 226 | 6.0 | 15.0 | 0.01 | 0.20 | 0.20 | 92 | 1007.1 |
| 20260509165817 | 52 | 205 | 7.0 | 16.0 | 0.01 | 0.20 | 0.20 | 92 | 1007.1 |
| 20260509165326 | 51 | 204 | 8.0 | 16.0 | 0.01 | 0.20 | 0.20 | 92 | 1007.2 |
| 20260509164814 | 52 | 84 | 4.0 | 13.0 | 0.01 | 0.20 | 0.20 | 92 | 1007.2 |
| 20260509164322 | 52 | 202 | 7.0 | 16.0 | 0.01 | 0.20 | 0.20 | 93 | 1007.3 |
| 20260509163830 | 51 | 198 | 7.0 | 16.0 | 0.01 | 0.23 | 0.20 | 93 | 1007.4 |
| 20260509163319 | 51 | 203 | 9.0 | 14.0 | 0.02 | 0.23 | 0.20 | 93 | 1007.4 |
| 20260509162823 | 51 | 201 | 8.0 | 13.0 | 0.02 | 0.23 | 0.20 | 93 | 1007.4 |
| 20260509162351 | 51 | 188 | 5.0 | 11.0 | 0.03 | 0.23 | 0.20 | 93 | 1007.5 |
| 20260509161839 | 51 | 182 | 6.0 | 12.0 | 0.03 | 0.23 | 0.20 | 93 | 1007.6 |
| 20260509161347 | 51 | 195 | 5.0 | 12.0 | 0.03 | 0.23 | 0.20 | 93 | 1007.7 |
| 20260509160816 | 51 | 173 | 3.0 | 11.0 | 0.02 | 0.22 | 0.19 | 94 | 1007.6 |
| 20260509160325 | 51 | 216 | 5.0 | 13.0 | 0.02 | 0.22 | 0.19 | 93 | 1007.8 |
| 20260509155820 | 51 | 189 | 9.0 | 13.0 | 0.03 | 0.22 | 0.19 | 93 | 1007.8 |
| 20260509155322 | 50 | 194 | 5.0 | 13.0 | 0.03 | 0.22 | 0.19 | 94 | 1007.9 |
| 20260509154824 | 50 | 194 | 5.0 | 10.0 | 0.03 | 0.22 | 0.19 | 94 | 1008.0 |
| 20260509154353 | 50 | 200 | 7.0 | 10.0 | 0.03 | 0.22 | 0.19 | 94 | 1008.1 |
| 20260509153821 | 50 | 189 | 4.0 | 9.0 | 0.04 | 0.24 | 0.19 | 94 | 1008.2 |
| 20260509153316 | 50 | 198 | 7.0 | 9.0 | 0.03 | 0.23 | 0.18 | 94 | 1008.3 |
| 20260509152842 | 50 | 228 | 5.0 | 7.0 | 0.03 | 0.23 | 0.18 | 94 | 1008.3 |
| 20260509152331 | 50 | 199 | 4.0 | 7.0 | 0.03 | 0.22 | 0.17 | 94 | 1008.4 |
| 20260509151817 | 49 | 202 | 4.0 | 10.0 | 0.03 | 0.22 | 0.17 | 94 | 1008.5 |
| 20260509151324 | 49 | 204 | 6.0 | 10.0 | 0.03 | 0.22 | 0.17 | 94 | 1008.5 |
| 20260509150814 | 49 | 235 | 6.0 | 10.0 | 0.03 | 0.22 | 0.17 | 94 | 1008.6 |
| 20260509150323 | 49 | 209 | 7.0 | 10.0 | 0.03 | 0.22 | 0.17 | 94 | 1008.6 |
| 20260509145831 | 49 | 189 | 4.0 | 7.0 | 0.02 | 0.21 | 0.16 | 95 | 1008.7 |
| 20260509145329 | 49 | 207 | 2.0 | 4.0 | 0.03 | 0.21 | 0.16 | 95 | 1008.7 |
| 20260509144847 | 48 | 219 | 2.0 | 4.0 | 0.03 | 0.21 | 0.16 | 95 | 1008.7 |
| 20260509144334 | 48 | 216 | 2.0 | 4.0 | 0.03 | 0.21 | 0.16 | 95 | 1008.8 |
| 20260509143822 | 48 | 219 | 2.0 | 3.0 | 0.02 | 0.20 | 0.15 | 95 | 1008.8 |
| 20260509143330 | 48 | 218 | 1.0 | 3.0 | 0.02 | 0.20 | 0.15 | 95 | 1008.7 |
| 20260509142837 | 47 | 233 | 1.0 | 4.0 | 0.03 | 0.20 | 0.15 | 95 | 1008.8 |
| 20260509142319 | 47 | 296 | 0.0 | 4.0 | 0.03 | 0.19 | 0.14 | 94 | 1008.8 |
| 20260509141819 | 47 | 293 | 2.0 | 3.0 | 0.03 | 0.19 | 0.14 | 95 | 1008.8 |
| 20260509141320 | 47 | 287 | 1.0 | 3.0 | 0.03 | 0.19 | 0.14 | 95 | 1008.8 |
| 20260509140830 | 47 | 230 | 1.0 | 2.0 | 0.04 | 0.19 | 0.14 | 95 | 1008.7 |
| 20260509140318 | 46 | 117 | 0.0 | 3.0 | 0.04 | 0.19 | 0.14 | 95 | 1008.8 |
| 20260509135826 | 46 | 137 | 1.0 | 5.0 | 0.04 | 0.19 | 0.14 | 94 | 1008.8 |
| 20260509135335 | 45 | 209 | 1.0 | 5.0 | 0.04 | 0.18 | 0.13 | 94 | 1008.9 |
| 20260509134823 | 45 | 119 | 1.0 | 5.0 | 0.04 | 0.18 | 0.13 | 94 | 1008.7 |
| 20260509134329 | 45 | 298 | 3.0 | 4.0 | 0.05 | 0.18 | 0.13 | 94 | 1008.8 |
| 20260509133815 | 45 | 277 | 2.0 | 3.0 | 0.05 | 0.18 | 0.13 | 94 | 1008.9 |
| 20260509133324 | 44 | 277 | 1.0 | 2.0 | 0.06 | 0.18 | 0.13 | 94 | 1008.9 |
| 20260509132832 | 44 | 277 | 1.0 | 2.0 | 0.05 | 0.17 | 0.12 | 94 | 1008.8 |
| 20260509132319 | 44 | 277 | 0.0 | 1.0 | 0.04 | 0.16 | 0.11 | 94 | 1008.9 |
| 20260509131827 | 44 | 277 | 0.0 | 1.0 | 0.05 | 0.16 | 0.11 | 94 | 1008.9 |
| 20260509131338 | 44 | 277 | 0.0 | 2.0 | 0.05 | 0.16 | 0.11 | 94 | 1008.9 |
| 20260509130820 | 44 | 277 | 0.0 | 3.0 | 0.05 | 0.15 | 0.10 | 94 | 1008.9 |
| 20260509130329 | 43 | 277 | 1.0 | 3.0 | 0.05 | 0.15 | 0.10 | 94 | 1008.8 |
| 20260509125816 | 43 | 277 | 2.0 | 3.0 | 0.05 | 0.15 | 0.10 | 94 | 1008.8 |
| 20260509125318 | 43 | 277 | 1.0 | 2.0 | 0.04 | 0.14 | 0.09 | 94 | 1008.7 |
| 20260509124846 | 43 | 277 | 1.0 | 2.0 | 0.04 | 0.14 | 0.09 | 94 | 1009.0 |
| 20260509124334 | 43 | 277 | 0.0 | 0.0 | 0.03 | 0.13 | 0.08 | 94 | 1009.1 |
| 20260509123823 | 42 | 277 | 0.0 | 1.0 | 0.03 | 0.13 | 0.08 | 94 | 1009.2 |
| 20260509123328 | 42 | 277 | 0.0 | 1.0 | 0.03 | 0.12 | 0.07 | 94 | 1009.3 |
| 20260509122815 | 42 | 277 | 0.0 | 1.0 | 0.03 | 0.12 | 0.07 | 94 | 1009.3 |
| 20260509122319 | 42 | 277 | 0.0 | 1.0 | 0.03 | 0.12 | 0.07 | 93 | 1009.3 |
| 20260509121827 | 42 | 277 | 1.0 | 2.0 | 0.02 | 0.11 | 0.06 | 93 | 1009.3 |
| 20260509121336 | 42 | 277 | 1.0 | 2.0 | 0.02 | 0.11 | 0.06 | 93 | 1009.4 |
| 20260509120837 | 42 | 277 | 2.0 | 2.0 | 0.01 | 0.10 | 0.05 | 93 | 1009.3 |
| 20260509120340 | 42 | 277 | 1.0 | 2.0 | 0.02 | 0.10 | 0.05 | 93 | 1009.3 |
| 20260509115820 | 42 | 277 | 1.0 | 2.0 | 0.02 | 0.10 | 0.05 | 94 | 1009.3 |
| 20260509115328 | 42 | 277 | 0.0 | 1.0 | 0.02 | 0.10 | 0.05 | 93 | 1009.3 |
| 20260509114836 | 41 | 277 | 0.0 | 1.0 | 0.02 | 0.10 | 0.05 | 93 | 1009.4 |
| 20260509114323 | 41 | 277 | 0.0 | 1.0 | 0.02 | 0.10 | 0.05 | 93 | 1009.4 |
| 20260509113831 | 41 | 277 | 0.0 | 1.0 | 0.02 | 0.10 | 0.05 | 93 | 1009.4 |
| 20260509113321 | 41 | 277 | 0.0 | 1.0 | 0.02 | 0.10 | 0.05 | 93 | 1009.4 |
| 20260509112826 | 41 | 277 | 0.0 | 1.0 | 0.01 | 0.09 | 0.04 | 93 | 1009.5 |
| 20260509112335 | 41 | 277 | 0.0 | 1.0 | 0.01 | 0.09 | 0.04 | 93 | 1009.5 |
| 20260509111826 | 41 | 277 | 0.0 | 1.0 | 0.01 | 0.09 | 0.04 | 93 | 1009.4 |
| 20260509111334 | 40 | 277 | 0.0 | 1.0 | 0.01 | 0.09 | 0.04 | 93 | 1009.2 |
| 20260509110821 | 40 | 277 | 0.0 | 1.0 | 0.01 | 0.09 | 0.04 | 93 | 1009.2 |
| 20260509110330 | 40 | 277 | 0.0 | 1.0 | 0.00 | 0.08 | 0.03 | 93 | 1009.2 |
| 20260509105817 | 40 | 277 | 0.0 | 2.0 | 0.00 | 0.08 | 0.03 | 92 | 1009.3 |
| 20260509105342 | 40 | 277 | 1.0 | 3.0 | 0.00 | 0.08 | 0.03 | 92 | 1009.3 |
| 20260509104823 | 40 | 277 | 1.0 | 2.0 | 0.00 | 0.08 | 0.03 | 92 | 1009.1 |
| 20260509104314 | 40 | 277 | 1.0 | 2.0 | 0.00 | 0.08 | 0.03 | 92 | 1009.1 |
| 20260509103841 | 40 | 277 | 0.0 | 1.0 | 0.00 | 0.08 | 0.03 | 92 | 1009.0 |
| 20260509103327 | 40 | 277 | 0.0 | 3.0 | 0.00 | 0.08 | 0.03 | 92 | 1009.0 |
| 20260509102818 | 40 | 277 | 0.0 | 3.0 | 0.00 | 0.08 | 0.03 | 92 | 1009.0 |
| 20260509102327 | 40 | 277 | 2.0 | 3.0 | 0.01 | 0.08 | 0.03 | 92 | 1009.0 |
| 20260509101830 | 40 | 277 | 0.0 | 2.0 | 0.01 | 0.08 | 0.03 | 92 | 1008.9 |
| 20260509101318 | 39 | 277 | 0.0 | 2.0 | 0.01 | 0.08 | 0.03 | 92 | 1008.9 |
| 20260509100826 | 39 | 277 | 0.0 | 2.0 | 0.01 | 0.08 | 0.03 | 92 | 1009.0 |
| 20260509100316 | 39 | 277 | 1.0 | 2.0 | 0.02 | 0.08 | 0.03 | 92 | 1009.0 |
| 20260509095819 | 39 | 277 | 2.0 | 2.0 | 0.02 | 0.08 | 0.03 | 92 | 1009.0 |
| 20260509095326 | 39 | 163 | 0.0 | 1.0 | 0.02 | 0.08 | 0.03 | 91 | 1009.0 |
| 20260509094847 | 39 | 163 | 0.0 | 2.0 | 0.03 | 0.08 | 0.03 | 91 | 1009.1 |
| 20260509094349 | 39 | 163 | 1.0 | 2.0 | 0.03 | 0.08 | 0.03 | 91 | 1009.2 |
| 20260509093817 | 39 | 157 | 0.0 | 3.0 | 0.03 | 0.09 | 0.03 | 91 | 1009.2 |
| 20260509093319 | 39 | 280 | 1.0 | 2.0 | 0.03 | 0.09 | 0.03 | 91 | 1009.2 |
| 20260509092827 | 39 | 284 | 0.0 | 0.0 | 0.03 | 0.09 | 0.03 | 91 | 1009.4 |
| 20260509092316 | 39 | 284 | 0.0 | 1.0 | 0.03 | 0.09 | 0.03 | 91 | 1009.6 |
| 20260509091824 | 39 | 284 | 0.0 | 2.0 | 0.02 | 0.08 | 0.02 | 90 | 1009.6 |
| 20260509091349 | 39 | 284 | 0.0 | 2.0 | 0.02 | 0.08 | 0.02 | 90 | 1009.6 |
| 20260509090818 | 39 | 284 | 1.0 | 2.0 | 0.02 | 0.08 | 0.02 | 90 | 1009.7 |
| 20260509090328 | 39 | 284 | 0.0 | 3.0 | 0.01 | 0.07 | 0.01 | 90 | 1009.6 |
| 20260509085835 | 39 | 284 | 2.0 | 3.0 | 0.01 | 0.07 | 0.01 | 90 | 1009.7 |
| 20260509085344 | 38 | 152 | 0.0 | 2.0 | 0.01 | 0.07 | 0.01 | 90 | 1009.6 |
| 20260509084830 | 38 | 153 | 0.0 | 2.0 | 0.00 | 0.06 | 0.00 | 90 | 1009.8 |
| 20260509084340 | 38 | 153 | 0.0 | 2.0 | 0.00 | 0.06 | 0.00 | 90 | 1009.8 |
| 20260509083824 | 38 | 153 | 1.0 | 2.0 | 0.00 | 0.06 | 0.00 | 90 | 1009.8 |
| 20260509083352 | 38 | 153 | 0.0 | 2.0 | 0.00 | 0.06 | 0.00 | 90 | 1009.8 |
| 20260509082841 | 38 | 152 | 0.0 | 2.0 | 0.00 | 0.06 | 0.00 | 90 | 1009.8 |
| 20260509082329 | 38 | 152 | 1.0 | 2.0 | 0.00 | 0.06 | 0.00 | 90 | 1009.8 |
| 20260509081818 | 38 | 153 | 1.0 | 2.0 | 0.00 | 0.06 | 0.00 | 90 | 1009.8 |
| 20260509081326 | 38 | 153 | 0.0 | 1.0 | 0.00 | 0.06 | 0.00 | 90 | 1009.9 |
| 20260509080816 | 38 | 153 | 0.0 | 1.0 | 0.00 | 0.06 | 0.00 | 90 | 1009.9 |
| 20260509080341 | 38 | 152 | 0.0 | 1.0 | 0.00 | 0.06 | 0.00 | 91 | 1009.9 |
| 20260509075848 | 37 | 152 | 0.0 | 2.0 | 0.00 | 0.06 | 0.00 | 90 | 1009.9 |
| 20260509075315 | 37 | 153 | 0.0 | 2.0 | 0.00 | 0.06 | 0.00 | 90 | 1009.8 |
| 20260509074843 | 37 | 153 | 0.0 | 1.0 | 0.00 | 0.06 | 0.00 | 90 | 1009.8 |
| 20260509074329 | 37 | 153 | 0.0 | 1.0 | 0.00 | 0.06 | 0.00 | 90 | 1009.7 |
| 20260509073820 | 37 | 152 | 0.0 | 1.0 | 0.00 | 0.06 | 0.00 | 90 | 1009.8 |
| 20260509073325 | 37 | 153 | 0.0 | 1.0 | 0.00 | 0.06 | 0.00 | 90 | 1009.8 |
| 20260509072813 | 37 | 152 | 0.0 | 1.0 | 0.00 | 0.06 | 0.00 | 90 | 1009.8 |
| 20260509072322 | 37 | 153 | 0.0 | 2.0 | 0.00 | 0.06 | 0.00 | 90 | 1009.8 |
| 20260509071831 | 37 | 152 | 0.0 | 2.0 | 0.00 | 0.06 | 0.00 | 90 | 1009.9 |
| 20260509071353 | 37 | 152 | 0.0 | 2.0 | 0.00 | 0.06 | 0.00 | 89 | 1009.9 |
| 20260509070821 | 37 | 152 | 1.0 | 2.0 | 0.00 | 0.06 | 0.00 | 89 | 1009.9 |
| 20260509070330 | 37 | 152 | 1.0 | 2.0 | 0.00 | 0.06 | 0.00 | 89 | 1010.0 |
| 20260509065815 | 37 | 153 | 1.0 | 2.0 | 0.00 | 0.06 | 0.00 | 89 | 1009.9 |
| 20260509065342 | 37 | 152 | 0.0 | 1.0 | 0.00 | 0.06 | 0.00 | 89 | 1009.9 |
| 20260509064850 | 37 | 153 | 0.0 | 1.0 | 0.00 | 0.06 | 0.00 | 90 | 1009.9 |
| 20260509064320 | 37 | 153 | 0.0 | 2.0 | 0.00 | 0.06 | 0.00 | 90 | 1010.0 |
| 20260509063829 | 37 | 152 | 1.0 | 2.0 | 0.00 | 0.06 | 0.00 | 89 | 1009.9 |
| 20260509063338 | 36 | 153 | 1.0 | 3.0 | 0.00 | 0.06 | 0.00 | 90 | 1010.0 |
| 20260509062821 | 36 | 153 | 2.0 | 3.0 | 0.00 | 0.06 | 0.00 | 89 | 1010.1 |
| 20260509062323 | 36 | 152 | 1.0 | 3.0 | 0.00 | 0.06 | 0.00 | 88 | 1010.1 |
| 20260509061831 | 36 | 153 | 1.0 | 2.0 | 0.00 | 0.06 | 0.00 | 88 | 1010.1 |
| 20260509061319 | 37 | 153 | 0.0 | 1.0 | 0.00 | 0.06 | 0.00 | 88 | 1010.3 |
| 20260509060826 | 37 | 152 | 0.0 | 1.0 | 0.00 | 0.06 | 0.00 | 89 | 1010.2 |
| 20260509060335 | 37 | 153 | 0.0 | 2.0 | 0.00 | 0.06 | 0.00 | 88 | 1010.2 |
| 20260509055821 | 37 | 153 | 0.0 | 2.0 | 0.00 | 0.06 | 0.00 | 87 | 1010.3 |
| 20260509055326 | 37 | 153 | 1.0 | 2.0 | 0.00 | 0.06 | 0.00 | 87 | 1010.4 |
| 20260509054836 | 38 | 152 | 0.0 | 0.0 | 0.00 | 0.06 | 0.00 | 88 | 1010.4 |
| 20260509054322 | 37 | 153 | 0.0 | 1.0 | 0.00 | 0.06 | 0.00 | 88 | 1010.4 |
| 20260509053831 | 38 | 153 | 0.0 | 1.0 | 0.00 | 0.06 | 0.00 | 87 | 1010.5 |
| 20260509053321 | 38 | 152 | 0.0 | 2.0 | 0.00 | 0.06 | 0.00 | 86 | 1010.4 |
| 20260509052832 | 38 | 153 | 0.0 | 2.0 | 0.00 | 0.06 | 0.00 | 86 | 1010.5 |
| 20260509052321 | 39 | 152 | 1.0 | 2.0 | 0.00 | 0.06 | 0.00 | 86 | 1010.6 |
| 20260509051829 | 39 | 153 | 0.0 | 0.0 | 0.00 | 0.06 | 0.00 | 87 | 1010.6 |
| 20260509051313 | 39 | 153 | 0.0 | 1.0 | 0.00 | 0.06 | 0.00 | 86 | 1010.7 |
| 20260509050822 | 39 | 152 | 0.0 | 1.0 | 0.00 | 0.06 | 0.00 | 86 | 1010.7 |
| 20260509050332 | 39 | 153 | 0.0 | 0.0 | 0.00 | 0.06 | 0.00 | 86 | 1010.7 |
| 20260509045821 | 39 | 153 | 0.0 | 1.0 | 0.00 | 0.06 | 0.00 | 85 | 1010.7 |
| 20260509045329 | 40 | 153 | 0.0 | 1.0 | 0.00 | 0.06 | 0.00 | 85 | 1010.6 |
| 20260509044840 | 40 | 152 | 0.0 | 1.0 | 0.00 | 0.06 | 0.00 | 84 | 1010.6 |
| 20260509044340 | 41 | 152 | 0.0 | 1.0 | 0.00 | 0.06 | 0.00 | 85 | 1010.8 |
| 20260509043825 | 41 | 153 | 0.0 | 0.0 | 0.00 | 0.06 | 0.06 | 85 | 1010.8 |
| 20260509043313 | 41 | 153 | 0.0 | 0.0 | 0.00 | 0.06 | 0.06 | 85 | 1010.8 |
| 20260509042823 | 41 | 152 | 0.0 | 2.0 | 0.00 | 0.06 | 0.06 | 84 | 1010.8 |
| 20260509042331 | 41 | 153 | 1.0 | 2.0 | 0.00 | 0.06 | 0.06 | 84 | 1010.7 |
| 20260509041821 | 41 | 153 | 0.0 | 1.0 | 0.00 | 0.06 | 0.06 | 84 | 1010.8 |
| 20260509041330 | 42 | 152 | 1.0 | 1.0 | 0.00 | 0.06 | 0.06 | 84 | 1010.8 |
| 20260509040819 | 42 | 153 | 0.0 | 0.0 | 0.00 | 0.06 | 0.06 | 84 | 1010.7 |
| 20260509040327 | 42 | 152 | 0.0 | 1.0 | 0.00 | 0.06 | 0.06 | 84 | 1010.7 |
| 20260509035827 | 42 | 153 | 0.0 | 1.0 | 0.00 | 0.06 | 0.06 | 85 | 1010.6 |
| 20260509035317 | 42 | 153 | 0.0 | 0.0 | 0.00 | 0.06 | 0.06 | 84 | 1010.7 |
| 20260509034819 | 42 | 153 | 0.0 | 2.0 | 0.00 | 0.06 | 0.06 | 84 | 1010.7 |
| 20260509034327 | 42 | 153 | 1.0 | 2.0 | 0.00 | 0.06 | 0.06 | 84 | 1010.8 |
| 20260509033837 | 42 | 153 | 0.0 | 0.0 | 0.00 | 0.06 | 0.06 | 84 | 1010.8 |
| 20260509033340 | 42 | 152 | 0.0 | 0.0 | 0.00 | 0.06 | 0.06 | 83 | 1010.8 |
| 20260509032826 | 42 | 153 | 0.0 | 2.0 | 0.00 | 0.06 | 0.06 | 83 | 1010.8 |
| 20260509032316 | 42 | 152 | 1.0 | 2.0 | 0.00 | 0.06 | 0.06 | 83 | 1010.8 |
| 20260509031820 | 42 | 153 | 1.0 | 2.0 | 0.00 | 0.06 | 0.06 | 83 | 1010.7 |
| 20260509031328 | 42 | 152 | 1.0 | 2.0 | 0.00 | 0.06 | 0.06 | 83 | 1010.8 |
| 20260509030817 | 42 | 153 | 0.0 | 3.0 | 0.00 | 0.06 | 0.06 | 81 | 1010.8 |
| 20260509030325 | 42 | 153 | 1.0 | 3.0 | 0.00 | 0.06 | 0.06 | 82 | 1010.8 |
| 20260509025814 | 42 | 152 | 1.0 | 2.0 | 0.00 | 0.06 | 0.06 | 81 | 1010.8 |
| 20260509025343 | 42 | 163 | 0.0 | 2.0 | 0.00 | 0.06 | 0.06 | 81 | 1010.8 |
| 20260509024823 | 42 | 163 | 2.0 | 2.0 | 0.00 | 0.06 | 0.06 | 81 | 1010.9 |
| 20260509024327 | 42 | 163 | 0.0 | 2.0 | 0.00 | 0.06 | 0.06 | 80 | 1010.8 |
| 20260509023815 | 42 | 163 | 0.0 | 3.0 | 0.00 | 0.06 | 0.06 | 80 | 1011.0 |
| 20260509023344 | 42 | 163 | 1.0 | 3.0 | 0.00 | 0.06 | 0.06 | 79 | 1010.8 |
| 20260509022813 | 42 | 46 | 1.0 | 2.0 | 0.00 | 0.06 | 0.06 | 79 | 1010.8 |
| 20260509022314 | 42 | 46 | 1.0 | 2.0 | 0.00 | 0.06 | 0.06 | 79 | 1010.8 |
| 20260509021822 | 42 | 46 | 0.0 | 0.0 | 0.00 | 0.06 | 0.06 | 80 | 1010.9 |
| 20260509021329 | 42 | 46 | 0.0 | 1.0 | 0.00 | 0.06 | 0.06 | 81 | 1010.8 |
| 20260509020815 | 41 | 46 | 0.0 | 3.0 | 0.00 | 0.06 | 0.06 | 81 | 1010.8 |